Tracking 19176 objects as of 27-May-2018
HD Live streaming from Space Station
objects crossing your sky now

COSMOS 1782

Track COSMOS 1782 now!
10-day predictions
COSMOS 1782 is classified as:


NORAD ID: 16986
Int'l Code: 1986-074A
Perigee: 547.0 km
Apogee: 559.0 km
Inclination: 82.5 °
Period: 95.6 minutes
Semi major axis: 6923 km
RCS: 9.471 m2 (large)
Launch date: September 30, 1986
Source: Commonwealth of Independent States (former USSR) (CIS)
Launch site: PLESETSK MISSILE AND SPACE COMPLEX (PKMTR)
aabbcc
Your satellite tracking list
Your tracking list is empty




NASA's NSSDC Master Catalog

Two Line Element Set (TLE):
1 16986U 86074A   18147.52130437  .00000101  00000-0  48144-5 0  9999
2 16986  82.5037 146.1881 0008673 239.3358 120.7016 15.06853986722709
Source of the keplerian elements: AFSPC